格洛纳斯M-759 COSMOS 2544 [GLONASS-M]

导读 | 豆包AI

COSMOS 2544是隶属于独立国家联合体(CIS)的格洛纳斯(GLONASS)导航卫星,于2019年12月11日发射入轨。它隶属于俄罗斯"宇宙"系列卫星,承担全球导航定位服务,是格洛纳斯全球卫星导航系统组网的重要组成部分,可为全球用户提供精准的坐标、速度定位服务,助力俄罗斯完善全球导航网络。

Basic Information
目录编号:
44850
目录名称:
COSMOS 2544 (GLONASS)
国际标识:
2019-088A
轨道中心:
EARTH
卫星名称:
格洛纳斯M-759
卫星全名:
格洛纳斯M-759 COSMOS 2544 [GLONASS-M]
卫星状态:
在轨 (已飞行2332 天)
发射日期:
2019-12-11 UTC
国别 :
俄罗斯(独联体) (CIS)
星等 :
--
Orbit Information
数据来源 国际轨道数据 AOE轨道数据
星历时间 2026-04-30T00:41:18+0800
19小时前
查看轨道信息
2026-04-29T08:00:00+0800
1天前
查看轨道信息
半长轴 25508.049km 25507.945km
偏心率 0.0014897 0.0014984
轨道倾角 65.540° 65.540°
近地点辐角 262.079° 262.003°
升交点赤经 75.348° 75.371°
平近点角 97.720° 284.355°
近地点 19091.912km 19091.586km
远地点 19167.912km 19168.03km
周期 675.734分钟 675.730分钟
每日圈数 2.131017 2.13103
Detailed Information
平衡模式:
三轴稳定
覆盖范围:
全球
运营商:
列舍特涅夫卫星信息系统
运营商所在国:
俄罗斯
制造商(研发单位):
列舍特涅夫卫星信息系统
制造商所在国:
俄罗斯
使用方式:
暂无
Satellite Introduction
格洛纳斯(GLONASS )是苏联/俄罗斯研制卫星导航系统。标准配置为24颗卫星,其中18颗卫星就能保证该系统为俄罗斯境内用户提供全部服务。该卫星仍在工作。
2D Orbit Map
3D Orbit Map
Orbit Altitude Analysis Chart
Orbit Inclination Analysis Chart
Orbit Comprehensive Analysis Chart
View Comprehensive Chart